Meteo pe oră la Aalsmeer

Astăzi, 13 Iunie, Duminică

Timp Temperatura Precipitaţii Vânt Presiune Umiditate
00:00 +10°C° 0 mm 2 m/s 770 mmHg 85%
01:00 +10°C° 0 mm 2 m/s 770 mmHg 85%
02:00 +11°C° 0 mm 1 m/s 770 mmHg 85%
03:00 +10°C° 0 mm 1 m/s 770 mmHg 86%
04:00 +12°C° 0 mm 1 m/s 770 mmHg 80%
05:00 +13°C° 0 mm 1 m/s 770 mmHg 74%
06:00 +14°C° 0 mm 1 m/s 770 mmHg 68%
07:00 +16°C° 0 mm 1 m/s 770 mmHg 62%
08:00 +19°C° 0 mm 1 m/s 771 mmHg 56%
09:00 +20°C° 0 mm 1 m/s 771 mmHg 50%
10:00 +20°C° 0 mm 2 m/s 771 mmHg 48%
11:00 +21°C° 0 mm 2 m/s 771 mmHg 46%
12:00 +23°C° 0 mm 2 m/s 771 mmHg 44%
13:00 +23°C° 0 mm 2 m/s 770 mmHg 44%
14:00 +23°C° 0 mm 2 m/s 770 mmHg 44%
15:00 +23°C° 0 mm 2 m/s 770 mmHg 44%
16:00 +23°C° 0 mm 2 m/s 769 mmHg 48%
17:00 +21°C° 0 mm 2 m/s 769 mmHg 52%
18:00 +20°C° 0 mm 2 m/s 769 mmHg 56%
19:00 +19°C° 0 mm 1 m/s 769 mmHg 62%
20:00 +18°C° 0 mm 1 m/s 769 mmHg 68%
21:00 +15°C° 0 mm 1 m/s 769 mmHg 74%
22:00 +15°C° 0 mm 1 m/s 769 mmHg 76%
23:00 +15°C° 0 mm 1 m/s 768 mmHg 78%

Mâine, 14 Iunie, Luni

Timp Temperatura Precipitaţii Vânt Presiune Umiditate
00:00 +14°C° 0 mm 2 m/s 768 mmHg 81%
01:00 +14°C° 0 mm 2 m/s 768 mmHg 82%
02:00 +14°C° 0 mm 2 m/s 767 mmHg 82%
03:00 +14°C° 0 mm 2 m/s 767 mmHg 83%
04:00 +15°C° 0 mm 2 m/s 767 mmHg 77%
05:00 +16°C° 0 mm 2 m/s 767 mmHg 71%
06:00 +18°C° 0 mm 3 m/s 767 mmHg 65%
07:00 +20°C° 0 mm 3 m/s 766 mmHg 59%
08:00 +21°C° 0 mm 3 m/s 766 mmHg 53%
09:00 +24°C° 0 mm 3 m/s 766 mmHg 47%
10:00 +25°C° 0 mm 3 m/s 766 mmHg 46%
11:00 +25°C° 0 mm 3 m/s 766 mmHg 45%
12:00 +26°C° 0 mm 4 m/s 765 mmHg 43%
13:00 +26°C° 0 mm 4 m/s 765 mmHg 45%
14:00 +26°C° 0 mm 4 m/s 765 mmHg 46%
15:00 +26°C° 0 mm 4 m/s 765 mmHg 47%
16:00 +25°C° 0 mm 3 m/s 765 mmHg 54%
17:00 +22°C° 0 mm 3 m/s 765 mmHg 60%
18:00 +21°C° 0 mm 3 m/s 765 mmHg 67%
19:00 +20°C° 0 mm 3 m/s 765 mmHg 74%
20:00 +18°C° 0 mm 3 m/s 765 mmHg 80%
21:00 +17°C° 0 mm 3 m/s 766 mmHg 87%
22:00 +17°C° 0 mm 3 m/s 766 mmHg 85%
23:00 +17°C° 0 mm 3 m/s 766 mmHg 83%

Poimâine, 15 Iunie, Marţi

Timp Temperatura Precipitaţii Vânt Presiune Umiditate
00:00 +17°C° 0 mm 2 m/s 766 mmHg 81%
01:00 +17°C° 0 mm 2 m/s 766 mmHg 80%
02:00 +17°C° 0 mm 2 m/s 766 mmHg 80%
03:00 +16°C° 0 mm 2 m/s 766 mmHg 79%
04:00 +16°C° 0 mm 2 m/s 766 mmHg 76%
05:00 +16°C° 0 mm 2 m/s 766 mmHg 73%
06:00 +16°C° 0 mm 2 m/s 766 mmHg 71%
07:00 +17°C° 0 mm 2 m/s 766 mmHg 65%
08:00 +18°C° 0 mm 2 m/s 767 mmHg 60%
09:00 +19°C° 0 mm 2 m/s 767 mmHg 55%
10:00 +20°C° 0 mm 2 m/s 766 mmHg 52%
11:00 +23°C° 0 mm 2 m/s 766 mmHg 49%
12:00 +24°C° 0 mm 2 m/s 766 mmHg 45%
13:00 +24°C° 0 mm 2 m/s 766 mmHg 46%
14:00 +24°C° 0 mm 3 m/s 765 mmHg 47%
15:00 +24°C° 0 mm 3 m/s 765 mmHg 48%
16:00 +22°C° 0 mm 3 m/s 765 mmHg 51%
17:00 +21°C° 0 mm 3 m/s 765 mmHg 55%
18:00 +20°C° 0 mm 3 m/s 764 mmHg 59%
19:00 +18°C° 0 mm 3 m/s 764 mmHg 63%
20:00 +17°C° 0 mm 3 m/s 764 mmHg 67%
21:00 +16°C° 0 mm 2 m/s 764 mmHg 71%
22:00 +16°C° 0 mm 2 m/s 764 mmHg 75%
23:00 +16°C° 0 mm 2 m/s 764 mmHg 79%

16 Iunie, Miercuri

Timp Temperatura Precipitaţii Vânt Presiune Umiditate
00:00 +15°C° 0 mm 2 m/s 764 mmHg 83%
01:00 +15°C° 0 mm 2 m/s 763 mmHg 83%
02:00 +15°C° 0 mm 2 m/s 763 mmHg 84%
03:00 +15°C° 0 mm 2 m/s 762 mmHg 84%
04:00 +16°C° 0 mm 2 m/s 762 mmHg 80%
05:00 +17°C° 0 mm 3 m/s 762 mmHg 77%
06:00 +18°C° 0 mm 3 m/s 762 mmHg 73%
07:00 +20°C° 0 mm 2 m/s 762 mmHg 68%
08:00 +23°C° 0 mm 2 m/s 762 mmHg 63%
09:00 +25°C° 0 mm 2 m/s 761 mmHg 58%
10:00 +26°C° 0 mm 2 m/s 761 mmHg 54%
11:00 +27°C° 0 mm 2 m/s 761 mmHg 50%
12:00 +29°C° 0 mm 2 m/s 760 mmHg 47%
13:00 +29°C° 0 mm 2 m/s 760 mmHg 46%
14:00 +29°C° 0 mm 2 m/s 760 mmHg 46%
15:00 +30°C° 0 mm 3 m/s 760 mmHg 45%
16:00 +29°C° 0 mm 3 m/s 759 mmHg 49%
17:00 +29°C° 0 mm 2 m/s 759 mmHg 53%
18:00 +28°C° 0 mm 2 m/s 759 mmHg 57%
19:00 +27°C° 0 mm 3 m/s 759 mmHg 63%
20:00 +25°C° 0 mm 3 m/s 759 mmHg 69%
21:00 +22°C° 0 mm 3 m/s 759 mmHg 75%
22:00 +22°C° 0 mm 3 m/s 758 mmHg 77%
23:00 +21°C° 0 mm 3 m/s 758 mmHg 80%

17 Iunie, Joi

Timp Temperatura Precipitaţii Vânt Presiune Umiditate
00:00 +21°C° 0 mm 3 m/s 758 mmHg 83%
01:00 +20°C° 0 mm 3 m/s 758 mmHg 84%
02:00 +20°C° 0 mm 3 m/s 757 mmHg 85%
03:00 +20°C° 0 mm 3 m/s 757 mmHg 86%
04:00 +21°C° 0 mm 3 m/s 757 mmHg 82%
05:00 +22°C° 0 mm 3 m/s 757 mmHg 77%
06:00 +24°C° 0 mm 3 m/s 757 mmHg 73%
07:00 +26°C° 0 mm 3 m/s 757 mmHg 66%
08:00 +28°C° 0 mm 3 m/s 757 mmHg 59%
09:00 +29°C° 0 mm 3 m/s 757 mmHg 53%
10:00 +30°C° 0.3 mm 3 m/s 757 mmHg 55%
11:00 +30°C° 0.3 mm 4 m/s 757 mmHg 56%
12:00 +30°C° 0.3 mm 5 m/s 757 mmHg 58%
13:00 +29°C° 0.2 mm 4 m/s 757 mmHg 60%
14:00 +29°C° 0.2 mm 4 m/s 758 mmHg 62%
15:00 +28°C° 0.2 mm 3 m/s 758 mmHg 65%
16:00 +28°C° 0 mm 3 m/s 758 mmHg 65%
17:00 +27°C° 0 mm 3 m/s 758 mmHg 66%
18:00 +27°C° 0 mm 3 m/s 759 mmHg 67%
19:00 +25°C° 0 mm 3 m/s 759 mmHg 73%
20:00 +22°C° 0 mm 3 m/s 759 mmHg 80%
21:00 +20°C° 0 mm 3 m/s 760 mmHg 86%
22:00 +20°C° 0 mm 3 m/s 760 mmHg 87%
23:00 +19°C° 0 mm 2 m/s 760 mmHg 87%

18 Iunie, Vineri

Timp Temperatura Precipitaţii Vânt Presiune Umiditate
00:00 +19°C° 0 mm 2 m/s 760 mmHg 88%
01:00 +19°C° 0 mm 2 m/s 760 mmHg 89%
02:00 +18°C° 0 mm 2 m/s 760 mmHg 91%
03:00 +18°C° 0 mm 2 m/s 760 mmHg 92%
04:00 +19°C° 0.4 mm 2 m/s 760 mmHg 91%
05:00 +19°C° 0.4 mm 2 m/s 760 mmHg 90%
06:00 +20°C° 0.4 mm 2 m/s 760 mmHg 88%
07:00 +21°C° 1.1 mm 2 m/s 760 mmHg 87%
08:00 +23°C° 1.1 mm 2 m/s 760 mmHg 85%
09:00 +24°C° 1.1 mm 3 m/s 760 mmHg 83%
10:00 +25°C° 0.5 mm 3 m/s 760 mmHg 78%
11:00 +27°C° 0.5 mm 3 m/s 759 mmHg 72%
12:00 +28°C° 0.5 mm 3 m/s 759 mmHg 67%
13:00 +28°C° 1.2 mm 3 m/s 758 mmHg 68%
14:00 +28°C° 1.2 mm 3 m/s 758 mmHg 68%
15:00 +28°C° 1.2 mm 3 m/s 758 mmHg 69%
16:00 +27°C° 1 mm 3 m/s 758 mmHg 70%
17:00 +26°C° 1 mm 3 m/s 758 mmHg 71%
18:00 +26°C° 1 mm 3 m/s 758 mmHg 72%
19:00 +23°C° 0.1 mm 4 m/s 758 mmHg 74%
20:00 +21°C° 0.1 mm 5 m/s 759 mmHg 77%
21:00 +19°C° 0.1 mm 5 m/s 759 mmHg 80%
22:00 +19°C° 0.1 mm 6 m/s 759 mmHg 79%
23:00 +19°C° 0.1 mm 6 m/s 759 mmHg 79%
Arată mai mult

Formular de consimțământ

Meteoprog și furnizorii noștri de servicii pot stoca și accesa date personale, precum cookies, identificatori de dispozitiv sau alte tehnologii similare pe dispozitivul dumneavoastră și procesa astfel de date pentru a personaliza conținutul și reclamele, dar și pentru a oferi caracteristici de social media și pentru a analiza traficul.

  • Stocarea și/sau accesarea informațiilor pe dispozitivul dumneavoastră

    Cookies, identificatori de dispozitiv sau alte informații pot fi stocate sau accesate pe dispozitiv în scopurile indicate mai sus.

  • Reclame și conținut personalizat, evaluarea reclamelor și a conținutului, informații despre audiențe și dezvoltarea produselor

    Reclamele și conținutul pot fi personalizate pe baza unui profil. Pot fi adăugate date suplimentare pentru a personaliza mai bine reclamele și conținutul. Performanța reclamelor și conținutului poate fi măsurată. Pot fi obținute informații despre utilizatorii care au văzut reclamele și conținutul. Aceste date pot fi utilizate pentru a dezvolta sau îmbunătăți experiența utilizatorilor, sistemele și software-ul.

Dând clic pe ‘Sunt de acord’, permiteți utilizarea cookie-urilor menționate, a identificatorilor de dispozitiv, balizelor web sau altor tehnologii similare. Setările pot fi modificate din browser-ul dispozitivului dumneavoastră.

În anumite scopuri, interesele legitime pot prima asupra consimțământului. Puteți citi mai multe informații în acest sens în Politica privind Confidențialitatea Datelor și Cookie.